TimeAKST,TemperatureF,Dew PointF,Humidity,Sea Level PressureIn,VisibilityMPH,Wind Direction,Wind SpeedMPH,Gust SpeedMPH,PrecipitationIn,Events,Conditions,WindDirDegrees,DateUTC
12:53 AM,35.1,32.0,89,29.41,10.0,East,20.7,29.9,N/A,,Overcast,80,2013-02-09 09:53:00
1:53 AM,36.0,30.9,82,29.33,10.0,East,21.9,29.9,N/A,,Overcast,80,2013-02-09 10:53:00
3:53 AM,36.0,30.9,82,29.28,10.0,East,18.4,28.8,0.01,Snow,Light Snow,80,2013-02-09 12:53:00
4:10 AM,33.8,32.0,93,29.25,6.0,ENE,23.0,32.2,0.00,Snow,Light Snow,70,2013-02-09 13:10:00
4:53 AM,34.0,32.0,92,29.22,9.0,East,24.2,33.4,0.00,,Overcast,80,2013-02-09 13:53:00
5:53 AM,35.1,32.0,89,29.19,10.0,East,26.5,35.7,0.00,,Overcast,90,2013-02-09 14:53:00
6:53 AM,35.1,30.9,85,29.16,10.0,East,27.6,36.8,N/A,,Mostly Cloudy,90,2013-02-09 15:53:00
7:53 AM,36.0,30.9,82,29.16,10.0,East,15.0,24.2,N/A,,Overcast,90,2013-02-09 16:53:00
8:53 AM,35.1,33.1,92,29.13,10.0,East,16.1,25.3,N/A,,Overcast,80,2013-02-09 17:53:00
9:53 AM,35.1,33.1,92,29.12,10.0,ENE,15.0,20.7,N/A,,Overcast,70,2013-02-09 18:53:00
10:53 AM,36.0,33.1,89,29.07,10.0,East,23.0,29.9,0.00,Rain,Light Rain,90,2013-02-09 19:53:00
11:53 AM,37.0,33.1,86,29.03,10.0,East,23.0,32.2,0.00,,Overcast,90,2013-02-09 20:53:00
12:53 PM,37.0,33.1,86,29.02,10.0,East,20.7,33.4,N/A,,Overcast,90,2013-02-09 21:53:00
1:53 PM,37.0,33.1,86,28.97,10.0,East,21.9,28.8,0.00,Rain,Light Rain,90,2013-02-09 22:53:00
2:53 PM,36.0,34.0,93,28.95,10.0,East,18.4,34.5,0.00,Rain,Light Rain,80,2013-02-09 23:53:00
3:53 PM,37.0,33.1,86,28.92,10.0,East,19.6,26.5,0.00,Rain,Light Rain,80,2013-02-10 00:53:00
4:53 PM,36.0,34.0,93,28.88,10.0,East,19.6,31.1,0.00,,Overcast,80,2013-02-10 01:53:00
5:53 PM,36.0,34.0,93,28.85,10.0,East,23.0,31.1,0.00,Rain,Light Rain,80,2013-02-10 02:53:00
6:53 PM,36.0,34.0,93,28.84,10.0,East,18.4,33.4,0.00,Rain,Light Rain,80,2013-02-10 03:53:00
7:09 PM,35.6,33.8,93,28.82,10.0,East,23.0,31.1,0.00,Rain,Light Rain,80,2013-02-10 04:09:00
7:53 PM,36.0,34.0,93,28.83,10.0,East,20.7,29.9,0.00,,Overcast,80,2013-02-10 04:53:00
8:26 PM,35.6,33.8,93,28.82,10.0,East,18.4,28.8,0.00,Rain,Light Rain,80,2013-02-10 05:26:00
8:45 PM,35.6,33.8,93,28.82,10.0,East,19.6,29.9,0.00,Rain,Light Rain,80,2013-02-10 05:45:00
8:53 PM,36.0,34.0,93,28.83,10.0,East,17.3,27.6,0.00,Rain,Light Rain,80,2013-02-10 05:53:00
9:15 PM,35.6,33.8,93,28.82,10.0,East,16.1,-,0.00,,Overcast,80,2013-02-10 06:15:00
9:47 PM,35.6,33.8,93,28.82,10.0,East,15.0,23.0,0.00,,Overcast,90,2013-02-10 06:47:00
9:53 PM,36.0,33.1,89,28.84,10.0,East,12.7,23.0,0.00,,Overcast,90,2013-02-10 06:53:00
10:36 PM,35.6,33.8,93,28.83,10.0,East,11.5,-,0.00,Rain,Light Rain,100,2013-02-10 07:36:00
10:53 PM,36.0,34.0,93,28.85,10.0,East,12.7,-,0.00,Rain,Light Rain,100,2013-02-10 07:53:00
11:53 PM,36.0,34.0,93,28.87,10.0,SSE,8.1,-,0.01,Rain,Light Rain,150,2013-02-10 08:53:00